Location: Kam�li
(14.6864°N, 3.1482°W)
Time: 01:20:46
(UTC+00:00)

Cosmos 2297 Rocket - Pass Details

Date: 29 October 2020
Orbit: 838 x 844 km, 71.0° (Epoch: 02 December)

Event Time Altitude Azimuth Distance (km) Brightness Sun altitude
Rises 19:22:37 0° 335° (NNW) 3,393 5.5 -24.0°
Reaches altitude 10° 19:25:07 10° 331° (NNW) 2,457 4.8 -24.6°
Maximum altitude 19:30:35 53° 255° (WSW) 1,023 2.9 -25.9°
Drops below altitude 10° 19:36:02 10° 180° (S) 2,451 4.7 -27.2°
Sets 19:38:32 0° 175° (S) 3,384 5.4 -27.8°
